Regional Weather Roundup
Issued by NWS Northern Indiana

Home | Current Version | Previous Version | Graphics & Text | Print | Product List | Glossary On
Versions: 1 2 3 4 5 6 7 8 9 10 11 12 13 14 15 16 17 18 19 20 21 22 23 24 25 26 27 28 29 30 31 32 33 34 35 36 37 38 39 40 41 42 43 44 45 46 47 48 49 50
000
ASUS43 KIWX 181110
RWRIWX

KIWX WEATHER ROUNDUP
NATIONAL WEATHER SERVICE NORTHERN INDIANA
600 AM EST THU DEC 18 2014

NOTE: "FAIR" INDICATES FEW OR NO CLOUDS BELOW 12,000 FEET WITH NO
SIGNIFICANT WEATHER AND/OR OBSTRUCTIONS TO VISIBILITY.

* THESE STATIONS ARE NOT UNDER NWS QUALITY CONTROL. THEY ALSO MAY NOT
  REPORT WEATHER SUCH AS PRECIPITATION OR FOG.

INZ001>027-181200-
NORTHERN INDIANA

CITY           SKY/WX    TMP DP  RH WIND       PRES   REMARKS
GARY*          CLOUDY    27  18  69 W7        30.28F WCI  19
VALPARAISO     CLOUDY    24  17  74 SW6       30.26S WCI  17
MICHIGAN CITY* CLOUDY    28  19  69 W3        30.26S
LAPORTE*       CLOUDY    27  22  80 W7        30.26R WCI  20
KNOX*          CLOUDY    26  19  77 W6        30.26R WCI  19
SOUTH BEND     CLOUDY    28  20  71 W6        30.25S WCI  22
GOSHEN         CLOUDY    27  21  78 W6        30.23S WCI  20
MONTICELLO*    CLOUDY    25  18  77 CALM      30.25F
LOGANSPORT*    CLOUDY    25  19  80 CALM      30.26F
ROCHESTER*     CLOUDY    28  23  80 CALM      30.26S
WARSAW*        CLOUDY    27  21  80 W5        30.24S WCI  21
ANGOLA*        CLOUDY    27  21  80 W5        30.21R WCI  21
FORT WAYNE     CLOUDY    27  22  81 W5        30.25S WCI  22
HUNTINGTON*    CLOUDY    26  21  81 CALM      30.25R
PERU/GRISSOM   CLOUDY    25  23  90 N5        30.24F WCI  19
MARION*        CLOUDY    26  22  85 NW3       30.26S

$$
INZ028>050-181200-
CENTRAL INDIANA

CITY           SKY/WX    TMP DP  RH WIND       PRES   REMARKS
LAFAYETTE      CLOUDY    24  18  77 CALM      30.27F
KOKOMO*        CLOUDY    27  16  63 CALM      30.25F
MUNCIE*        CLOUDY    25  19  78 W3        30.26R
INDIANAPOLIS   CLOUDY    24  18  77 NE3       30.23F

$$
MIZ043>046-050>051-056>058-064>065-071>073-077>080-181200-
SOUTHWEST LOWER MICHIGAN

CITY           SKY/WX    TMP DP  RH WIND       PRES   REMARKS
BATTLE CREEK   CLOUDY    30  23  75 W8        30.20S WCI  22
BENTON HARBOR  CLOUDY    27  22  81 W7        30.24S WCI  19
COLDWATER*     CLOUDY    28  24  84 W6        30.21R WCI  21
HILLSDALE*     CLOUDY    28  25  88 W7        30.19R WCI  21
HOLLAND        CLOUDY    33  25  72 W5        30.22S WCI  29
GRAND RAPIDS   CLOUDY    30  25  81 W9        30.19F WCI  22
KALAMAZOO      CLOUDY    30  22  72 W8        30.22R WCI  22
STURGIS*       CLOUDY    27  23  86 W5        30.21S WCI  21
THREE RIVERS*  CLOUDY    29  24  81 W8        30.22S WCI  21

$$
OHZ001>008-015>018-024>025-181200-
NORTHWEST OHIO

CITY           SKY/WX    TMP DP  RH WIND       PRES   REMARKS
WAUSEON*       CLOUDY    28  23  80 NW7       30.22R WCI  21
FINDLAY        CLOUDY    29  22  75 W7        30.22S WCI  22
TOLEDO EXPRESS CLOUDY    29  22  75 W7        30.22R WCI  22
TOLEDO METCALF CLOUDY    30  21  69 W7        30.23S WCI  23
LIMA           CLOUDY    30  21  69 W6        30.22F WCI  24

$$
AND FOR LAKE MICHIGAN COASTAL AND OPEN LAKE BUOY OBSERVATIONS

STATION/POSITION TEMP    WIND        PRES    VSBY  WAVE
                 AIR SEA DIR/SP/G                  HT/PER
                 (F)     (DEG/KT/KT) (MB)    (MI)  (FT/S)
CALUMET HARBOR    25     260/  2/  4 1023.8R
SAINT JOSEPH      29     310/  6/  8 1024.7R

$$
&&


USA.gov is the U.S. government's official web portal to all federal, state and local government web resources and services.